Location: Unspecified
(0.0000°N, 0.0000°E)
Time: 07:46:01
(UTC+00:00)

CZ-4C DEB - Pass Details

Date: 18 March 2026
Orbit: 805 x 1381 km, 63.4° (Epoch: 18 April)

Event Time Altitude Azimuth Distance (km) Brightness Sun altitude
Rises 19:19:38 0° 324° (NW) 4,255 ? -17.9°
Reaches altitude 10° 19:22:30 10° 319° (NW) 3,341 ? -18.6°
Maximum altitude 19:30:24 49° 247° (WSW) 1,716 ? -20.6°
Drops below altitude 10° 19:38:34 10° 175° (S) 3,434 ? -22.6°
Sets 19:41:34 0° 169° (S) 4,381 ? -23.4°
